Daviess Cnty AP, Washington,, IN

1:17 AM EST on December 06, 2019 (GMT -0500)
Daviess County

Weather History for KDCY - October, 2019

Change the Weather History Date:

Tuesday, October 8, 2019

  Actual Average (KLWV) Record (KLWV)
Temperature  
Mean Temperature 56 °F -  
Max Temperature 73 °F 70 °F 95 °F (2007)
Min Temperature 40 °F 45 °F 33 °F (1991)
Degree Days  
Heating Degree Days 8    
Growing Degree Days 6 (Base 50)    
Moisture  
Dew Point 42 °F    
Average Humidity 71    
Maximum Humidity 100    
Minimum Humidity 27    
Precipitation  
Precipitation 0.00 in - - ()
Sea Level Pressure  
Sea Level Pressure 30.19 in    
Wind  
Wind Speed 2 mph (ENE)    
Max Wind Speed 14 mph    
Max Gust Speed 21 mph    
Visibility 8 miles    
Events Fog    
Averages and records for this station are not official NWS values.
T = Trace of Precipitation, MM = Missing Value Source: NWS Daily Summary

Daily Weather History Graph

Daily Weather History Graph

Search for Another Location

Airport or City:

Astronomy

Oct. 08, 2019 Rise Set
Actual Time 7:50 AM EDT 7:20 PM EDT
Civil Twilight 7:24 AM EDT 7:47 PM EDT
Nautical Twilight 6:53 AM EDT 8:18 PM EDT
Astronomical Twilight 6:22 AM EDT 8:48 PM EDT
Moon 5:15 PM EDT (10/8) 2:44 AM EDT (10/8)
Length of Visible Light 12h 23m
Length of Day
11h 30m
Waxing Gibbous, 77% of the Moon is Illuminated
Oct 8
Waxing Gibbous
Oct 13
Full
Oct 21
Last Quarter
Oct 27
New
Nov 4
First Quarter

Hourly Weather History & Observations

Time (EDT) Temp. Windchill Dew Point Humidity Pressure Visibility Wind Dir Wind Speed Gust Speed Precip Events Conditions
12:15 AM 44.1 °F - 43.9 °F 99% 30.22 in 10.0 mi Calm Calm - N/A   Clear
12:35 AM 44.6 °F - 44.2 °F 99% 30.22 in 10.0 mi Calm Calm - N/A   Clear
12:55 AM 45.5 °F - 45.1 °F 99% 30.22 in 10.0 mi Calm Calm - N/A   Clear
1:15 AM 44.6 °F 43.1 °F 44.2 °F 99% 30.22 in 10.0 mi ESE 3.5 mph - N/A   Clear
1:35 AM 42.6 °F - 42.4 °F 99% 30.21 in 10.0 mi Calm Calm - N/A   Clear
1:55 AM 43.0 °F - 42.8 °F 99% 30.21 in 10.0 mi Calm Calm - N/A   Clear
2:15 AM 44.2 °F - 44.1 °F 99% 30.21 in 10.0 mi Calm Calm - N/A   Clear
2:35 AM 42.4 °F - 42.3 °F 99% 30.22 in 10.0 mi Calm Calm - N/A   Clear
2:55 AM 42.8 °F - 42.8 °F 100% 30.21 in 10.0 mi Calm Calm - N/A   Clear
3:15 AM 41.5 °F - 41.4 °F 99% 30.21 in 10.0 mi Calm Calm - N/A   Clear
3:35 AM 42.1 °F - 41.9 °F 99% 30.21 in 7.0 mi Calm Calm - N/A   Clear
3:55 AM 41.2 °F - 40.8 °F 99% 30.21 in 10.0 mi Calm Calm - N/A   Clear
4:15 AM 41.5 °F - 41.4 °F 99% 30.20 in 1.5 mi Calm Calm - N/A   Mist
4:35 AM 40.8 °F - 40.6 °F 99% 30.20 in 4.0 mi Calm Calm - N/A   Clear
4:55 AM 41.9 °F - 41.7 °F 99% 30.21 in 1.0 mi Calm Calm - N/A   Mist
5:15 AM 43.3 °F - 43.2 °F 99% 30.21 in 1.8 mi Calm Calm - N/A   Mist
5:35 AM 43.3 °F - 43.2 °F 99% 30.21 in 0.8 mi Calm Calm - N/A   Mist
5:55 AM 41.4 °F - 41.0 °F 99% 30.21 in 0.5 mi Calm Calm - N/A Fog Fog
6:35 AM 40.1 °F - 40.1 °F 100% 30.22 in 0.8 mi Calm Calm - N/A   Mist
6:55 AM 40.1 °F - 39.9 °F 99% 30.22 in 0.5 mi Calm Calm - N/A Fog Fog
7:15 AM 40.1 °F - 40.1 °F 100% 30.22 in 0.8 mi Calm Calm - N/A   Mostly Cloudy
7:35 AM 41.7 °F - 41.4 °F 99% 30.23 in 0.5 mi Calm Calm - N/A Fog Fog
7:55 AM 40.6 °F - 40.5 °F 99% 30.23 in 0.8 mi Calm Calm - N/A   Mist
8:15 AM 40.6 °F - 40.5 °F 99% 30.23 in 7.0 mi Calm Calm - N/A   Clear
8:35 AM 42.4 °F - 42.1 °F 99% 30.23 in 10.0 mi Calm Calm - N/A   Unknown
8:55 AM 44.6 °F - 44.4 °F 99% 30.23 in 10.0 mi Calm Calm - N/A   Unknown
9:15 AM 46.6 °F - 46.4 °F 99% 30.23 in 10.0 mi Calm Calm - N/A   Unknown
9:35 AM 48.9 °F - 48.7 °F 99% 30.24 in 10.0 mi Calm Calm - N/A   Unknown
9:55 AM 52.0 °F - 51.8 °F 99% 30.24 in 10.0 mi Calm Calm - N/A   Clear
10:15 AM 55.2 °F - 52.2 °F 89% 30.24 in 10.0 mi Calm Calm - N/A   Clear
10:35 AM 58.3 °F - 51.4 °F 78% 30.24 in 10.0 mi Calm Calm - N/A   Clear
10:55 AM 61.3 °F - 50.5 °F 68% 30.24 in 10.0 mi Calm Calm - N/A   Clear
11:15 AM 64.4 °F - 48.0 °F 55% 30.24 in 10.0 mi Calm Calm - N/A   Clear
11:30 AM 65.8 °F - 45.3 °F 47% 30.24 in 10.0 mi East 5.8 mph - N/A   Clear
11:55 AM 68.5 °F - 41.4 °F 37% 30.24 in 10.0 mi East 9.2 mph - N/A   Clear
12:15 PM 69.6 °F - 40.6 °F 35% 30.23 in 10.0 mi ESE 11.5 mph - N/A   Clear
12:35 PM 69.8 °F - 39.9 °F 34% 30.23 in 10.0 mi East 9.2 mph 19.6 mph N/A   Clear
12:55 PM 70.7 °F - 39.9 °F 33% 30.22 in 10.0 mi East 13.8 mph 19.6 mph N/A   Clear
1:15 PM 70.9 °F - 40.1 °F 33% 30.21 in 10.0 mi East 11.5 mph 16.1 mph N/A   Clear
1:35 PM 71.2 °F - 39.7 °F 32% 30.20 in 10.0 mi ENE 6.9 mph 18.4 mph N/A   Clear
1:55 PM 71.1 °F - 38.5 °F 31% 30.19 in 10.0 mi NE 9.2 mph 20.7 mph N/A   Clear
2:15 PM 71.6 °F - 38.7 °F 30% 30.17 in 10.0 mi ENE 12.7 mph 18.4 mph N/A   Clear
2:35 PM 72.7 °F - 39.4 °F 30% 30.16 in 10.0 mi NE 4.6 mph 11.5 mph N/A   Clear
2:55 PM 72.7 °F - 38.8 °F 29% 30.15 in 10.0 mi East 8.1 mph - N/A   Clear
3:15 PM 72.5 °F - 38.8 °F 29% 30.15 in 10.0 mi ESE 6.9 mph - N/A   Clear
3:35 PM 72.3 °F - 37.9 °F 29% 30.15 in 10.0 mi East 6.9 mph - N/A   Clear
3:55 PM 73.6 °F - 38.1 °F 28% 30.14 in 10.0 mi East 10.4 mph - N/A   Clear
4:15 PM 73.4 °F - 37.8 °F 27% 30.14 in 10.0 mi ENE 6.9 mph - N/A   Clear
4:35 PM 73.2 °F - 37.9 °F 28% 30.13 in 10.0 mi NE 6.9 mph - N/A   Clear
4:55 PM 73.0 °F - 38.7 °F 29% 30.13 in 10.0 mi ESE 3.5 mph - N/A   Clear
5:10 PM 73.6 °F - 39.6 °F 29% 30.13 in 10.0 mi East 9.2 mph - N/A   Clear
5:35 PM 72.9 °F - 38.8 °F 29% 30.12 in 10.0 mi NE 5.8 mph - N/A   Clear
6:10 PM 71.8 °F - 39.2 °F 31% 30.12 in 10.0 mi NNE 3.5 mph - N/A   Clear
6:35 PM 70.7 °F - 40.5 °F 33% 30.12 in 10.0 mi ENE 4.6 mph - N/A   Clear
7:00 PM 68.2 °F - 40.8 °F 37% 30.12 in 5.0 mi NE 3.5 mph - N/A   Haze
7:10 PM 66.4 °F - 41.7 °F 41% 30.12 in 5.0 mi Calm Calm - N/A   Haze
7:35 PM 56.5 °F - 45.3 °F 66% 30.12 in 7.0 mi Calm Calm - N/A   Clear
7:55 PM 55.8 °F - 44.2 °F 65% 30.12 in 7.0 mi Calm Calm - N/A   Clear
8:15 PM 54.0 °F - 43.5 °F 68% 30.13 in 10.0 mi Calm Calm - N/A   Clear
8:35 PM 51.8 °F - 44.4 °F 76% 30.13 in 10.0 mi Calm Calm - N/A   Clear
8:55 PM 52.5 °F - 43.3 °F 71% 30.14 in 10.0 mi Calm Calm - N/A   Clear
9:15 PM 50.5 °F - 43.9 °F 78% 30.13 in 10.0 mi Calm Calm - N/A   Clear
9:35 PM 48.4 °F - 43.5 °F 83% 30.14 in 10.0 mi Calm Calm - N/A   Clear
9:55 PM 48.7 °F - 43.3 °F 82% 30.14 in 10.0 mi Calm Calm - N/A   Clear
10:15 PM 49.5 °F - 42.8 °F 78% 30.14 in 7.0 mi Calm Calm - N/A   Clear
10:35 PM 47.8 °F - 42.8 °F 83% 30.14 in 10.0 mi Calm Calm - N/A   Clear
10:55 PM 48.9 °F - 43.0 °F 80% 30.14 in 10.0 mi Calm Calm - N/A   Clear
11:15 PM 47.1 °F - 42.3 °F 83% 30.14 in 10.0 mi Calm Calm - N/A   Clear
11:35 PM 46.6 °F - 42.1 °F 84% 30.14 in 10.0 mi Calm Calm - N/A   Clear
11:55 PM 46.2 °F - 43.5 °F 90% 30.14 in 10.0 mi Calm Calm - N/A   Clear